GFSSW_850_temp_051.txt.gz
Temp
6 6 7 7 8 8 8 8 8 8 8 8 8 8 9 9 9 8 9 10 10 10 11 11 12 13 13 14 15 16 19 19 21 22 23 23 23 22 22 22 22 23 23 21 19
4 5 6 7 7 8 8 8 8 8 8 8 8 8 8 8 8 9 10 9 10 11 10 12 13 13 14 15 15 17 18 19 23 24 23 23 21 22 22 21 22 22 22 20 19
4 3 5 6 7 7 7 7 8 8 8 8 8 8 8 8 9 10 10 10 10 10 10 12 13 13 15 15 16 17 17 20 21 19 19 21 21 20 21 21 23 23 22 20 20
2 3 3 5 5 6 7 7 7 8 8 8 8 7 8 8 10 10 10 9 10 10 11 12 13 14 15 16 16 16 17 18 20 18 17 18 19 20 20 20 21 21 21 20 20
2 2 2 3 4 5 6 7 7 7 8 8 7 7 7 8 9 10 9 9 10 10 10 12 13 14 15 17 16 16 17 18 17 17 17 16 17 18 19 19 19 20 19 19 19
2 2 2 2 2 4 5 6 7 7 7 7 7 7 7 9 10 10 9 9 9 10 10 11 12 14 14 15 15 16 16 17 16 16 16 16 16 17 17 18 18 18 19 19 19
2 2 2 2 2 3 5 5 6 7 6 6 6 7 7 9 9 9 9 9 9 10 11 10 11 12 12 13 13 14 14 15 16 16 16 16 15 16 17 17 18 18 19 18 19
2 2 1 2 2 3 3 5 6 7 6 6 6 6 8 8 8 8 8 9 9 9 10 9 10 11 12 12 13 13 14 14 18 17 17 16 16 20 19 18 18 18 18 19 19
1 1 1 2 2 3 3 4 5 6 6 5 5 6 9 7 8 8 8 9 9 9 9 10 10 11 11 13 14 15 15 16 18 17 17 15 16 20 18 17 19 19 19 19 19
1 1 1 2 2 3 3 3 6 5 5 5 5 6 7 8 8 8 8 9 10 9 9 10 11 12 12 13 14 16 15 16 16 17 15 15 16 17 17 17 17 17 18 18 19
1 1 1 1 2 2 3 2 5 5 5 6 7 9 8 8 7 7 8 9 10 10 11 11 11 11 13 13 15 13 14 15 16 17 15 15 15 16 17 17 17 18 18 18 18
1 1 1 1 2 2 2 2 3 3 5 6 7 8 8 8 8 8 8 10 10 10 12 9 9 13 13 13 12 12 12 13 15 15 13 14 14 16 17 17 17 17 17 18 18
1 1 1 1 2 2 2 3 3 2 3 6 6 8 7 7 10 8 9 10 11 10 10 10 11 12 12 11 11 11 12 13 13 13 14 14 15 19 20 19 17 17 17 17 18
0 1 1 0 2 1 2 3 2 1 3 6 6 7 7 8 9 8 9 10 10 10 10 11 12 11 11 11 11 11 13 12 11 11 13 14 13 16 18 19 19 18 18 17 17
0 1 1 1 0 1 2 2 2 1 6 7 6 8 7 9 9 8 9 9 11 11 10 10 10 10 10 11 11 11 11 11 11 11 10 12 11 16 18 18 18 19 19 19 18
0 1 1 1 1 1 2 2 1 3 7 5 5 7 7 9 9 8 8 9 11 11 10 11 10 11 11 11 11 10 10 10 10 9 8 12 13 16 19 18 18 19 19 18 17
1 1 1 1 1 1 1 1 3 5 5 5 6 7 7 8 8 8 7 8 9 7 7 10 9 10 11 10 10 9 8 10 9 8 10 14 14 14 17 18 18 18 18 18 17
0 1 2 1 2 1 1 2 5 9 6 7 7 8 7 8 8 8 7 7 10 11 11 8 9 9 10 10 10 9 8 11 11 13 14 14 13 16 18 18 17 16 16 16 16
1 2 1 2 2 1 2 3 7 7 8 7 7 7 7 8 8 8 8 8 9 10 10 11 10 10 10 10 10 8 7 10 8 10 11 14 16 18 19 18 18 18 17 17 16
1 1 1 2 2 1 5 6 5 5 9 8 8 8 7 7 8 9 9 10 10 11 12 11 9 10 9 9 9 9 11 7 7 8 10 14 15 16 18 18 18 18 16 16 15
0 1 2 2 1 3 4 6 4 5 9 9 9 9 9 8 9 9 9 10 11 11 11 10 10 8 8 8 9 7 8 9 11 10 11 11 14 18 17 17 16 16 15 15 14
0 2 2 2 2 4 5 5 4 6 7 9 10 10 10 10 9 10 10 11 11 11 9 10 10 8 8 12 12 10 9 9 8 10 10 10 10 16 17 17 16 16 13 11 11
0 -0 1 2 3 5 6 4 5 6 7 9 9 10 11 10 9 11 11 10 10 11 10 9 8 9 10 10 11 10 11 10 10 10 8 8 11 17 17 17 15 12 10 8 8
0 2 1 2 2 7 7 4 5 6 7 9 9 10 11 10 11 10 9 9 9 10 8 9 9 9 11 11 10 7 9 11 10 7 9 10 11 14 14 13 12 10 8 6 7
-0 1 2 3 4 7 8 6 6 6 8 9 9 11 11 10 10 10 9 9 9 7 8 8 8 9 10 10 11 10 9 9 8 9 8 10 11 13 12 11 10 9 6 6 6
0 0 1 4 7 8 7 7 6 8 9 9 10 11 12 11 12 10 11 9 9 8 8 7 8 9 8 10 9 9 10 10 10 9 9 8 7 10 10 10 11 9 6 6 5
0 0 0 5 7 7 7 9 7 9 8 8 10 10 10 10 10 11 11 11 10 9 7 6 6 7 8 11 11 9 10 9 8 7 7 7 9 12 13 11 11 8 7 6 5

GFSSW_850_temp_054.txt.gz
Temp
4 4 4 5 6 7 7 8 8 8 8 8 9 9 9 9 8 8 8 10 10 10 11 11 12 12 13 14 15 17 15 16 18 19 20 24 23 23 23 23 23 23 23 21 20
3 3 4 4 5 6 7 7 8 8 8 8 8 9 8 8 8 8 9 9 10 10 11 11 12 13 13 14 15 15 14 16 19 20 20 21 23 23 22 22 22 22 23 21 20
3 3 3 3 3 4 5 6 7 7 7 8 8 8 8 8 8 9 10 10 10 10 11 11 13 14 14 15 15 15 14 18 19 20 19 19 19 21 21 20 22 22 23 22 20
3 3 3 2 2 3 4 5 6 7 7 8 8 7 8 8 10 10 11 11 10 10 11 11 12 14 14 14 16 15 17 17 18 19 18 18 18 19 20 20 21 21 22 21 20
3 2 2 2 2 2 2 4 5 6 8 8 8 7 7 7 9 10 11 10 10 10 10 11 13 14 14 15 16 15 16 18 18 18 18 18 17 17 18 19 20 20 20 20 20
2 2 2 2 2 2 2 3 5 6 7 7 7 7 6 8 10 9 10 10 9 9 10 11 13 14 15 15 16 17 16 16 17 17 17 16 16 16 17 18 18 19 19 20 19
2 2 2 2 2 2 2 2 3 5 6 6 6 6 6 8 9 9 10 10 10 10 10 11 11 12 14 15 14 14 13 14 15 16 15 16 15 15 16 17 17 18 18 19 19
2 2 2 1 1 1 2 2 3 5 6 6 6 5 6 8 9 9 9 9 10 10 10 11 10 11 12 13 14 13 13 12 15 16 16 15 13 16 18 17 17 17 18 19 19
1 1 1 1 1 1 2 2 3 4 5 6 5 6 7 8 8 9 9 10 10 10 10 10 10 10 11 12 12 13 12 13 15 17 17 15 14 16 17 18 18 18 18 18 19
1 1 2 2 1 2 2 2 3 4 5 6 5 5 6 8 8 9 9 10 10 10 8 9 10 10 11 11 10 13 12 14 14 15 15 14 14 15 17 17 17 18 18 19 19
1 1 1 1 1 2 2 2 3 4 4 6 6 7 9 9 8 9 9 10 10 10 10 10 10 10 12 12 13 13 13 12 15 16 14 14 14 15 16 16 16 17 17 18 18
1 1 1 1 1 2 2 1 3 3 2 5 6 8 9 8 8 8 9 10 10 10 11 10 9 12 13 14 13 12 12 11 13 15 13 12 13 14 15 15 16 16 17 17 18
1 1 1 1 1 1 1 2 2 2 1 2 6 6 8 9 9 9 9 11 11 10 10 9 11 12 11 11 11 11 11 11 12 12 12 12 12 14 16 15 16 16 17 17 17
0 1 1 1 1 1 2 1 3 2 3 5 6 6 8 8 9 9 9 11 11 10 11 10 12 11 11 11 11 10 12 12 12 10 10 11 8 13 14 16 17 17 17 16 16
1 1 1 0 1 1 1 2 1 2 4 6 6 6 8 9 9 8 9 10 10 11 10 9 11 10 10 11 12 10 11 11 11 9 8 10 8 10 16 16 17 17 18 18 18
0 0 -0 1 1 1 1 2 1 3 5 4 5 6 8 10 10 9 9 10 11 11 10 11 11 11 11 11 11 11 10 10 9 8 5 9 10 11 15 16 17 17 18 18 18
1 1 1 1 1 2 2 1 2 4 4 5 5 7 9 8 9 9 8 8 8 6 7 10 9 10 11 10 10 9 8 7 8 6 6 14 10 10 14 15 15 15 16 17 17
1 1 2 2 1 2 1 2 2 7 5 4 6 7 7 8 8 8 7 7 10 10 9 7 7 9 10 10 9 8 7 6 8 8 10 13 10 11 15 16 17 17 17 16 17
1 1 1 2 2 2 2 2 5 5 6 6 6 6 6 8 7 7 7 8 9 9 10 8 9 10 11 11 10 8 7 9 7 8 7 9 13 15 16 15 15 16 17 17 17
0 1 1 2 2 2 3 5 6 4 7 7 7 8 6 6 7 8 7 9 9 10 11 11 8 10 10 9 10 9 9 5 4 4 7 9 12 12 15 13 14 13 14 15 14
0 1 1 2 2 2 3 5 6 3 5 7 9 8 9 7 9 8 8 10 10 10 10 10 10 8 8 7 8 7 6 8 9 7 6 5 8 16 12 13 14 13 12 12 11
0 1 2 2 2 2 4 6 5 5 6 9 10 10 9 9 9 9 9 11 11 11 9 10 10 6 7 10 9 9 8 8 6 6 6 4 6 13 13 14 13 14 12 11 10
0 0 2 2 3 4 4 4 4 5 7 9 9 11 11 9 8 10 10 11 11 11 10 9 7 8 9 9 10 9 10 10 9 8 5 5 8 13 12 13 13 12 11 9 8
0 1 1 1 1 3 5 4 4 5 7 9 10 11 10 9 10 9 9 10 10 10 10 10 9 7 7 9 9 7 9 9 8 5 7 7 9 10 12 12 12 11 10 8 6
0 1 2 2 3 4 6 5 5 6 7 9 10 11 10 10 10 9 9 8 9 8 9 8 7 8 9 9 10 9 8 8 7 8 7 9 9 10 11 11 11 10 8 6 6
1 1 0 3 5 6 7 5 5 7 7 10 10 11 11 10 11 9 9 9 8 7 8 8 7 8 8 9 9 8 9 9 9 9 9 9 8 11 11 11 10 8 7 6 5
0 0 1 3 7 6 7 8 6 7 7 9 10 10 9 9 9 10 10 11 10 8 7 6 6 7 7 10 10 7 9 9 10 10 10 9 9 10 10 10 9 7 7 6 5

GFSSW_850_temp_057.txt.gz
Temp
3 3 3 3 4 4 4 5 7 7 8 8 8 8 8 8 8 8 8 10 11 11 11 11 11 12 12 13 14 15 11 11 14 15 17 21 18 22 22 23 23 23 23 21 20
3 3 3 3 3 3 3 4 5 6 7 7 8 8 8 8 8 8 12 10 11 11 10 11 11 12 12 13 14 12 11 13 16 16 17 19 18 19 21 22 21 22 21 20 20
3 3 3 3 3 3 3 3 4 5 6 8 8 8 8 7 7 10 12 11 10 10 10 11 12 12 12 13 13 13 11 15 16 18 18 17 18 19 19 19 21 21 20 21 21
3 3 3 3 3 2 2 2 3 4 5 7 7 7 7 7 7 10 10 10 9 10 10 11 11 11 11 11 13 12 14 15 16 16 16 17 17 16 17 19 19 20 21 20 20
3 3 3 2 2 2 2 2 2 3 4 5 7 7 6 6 8 10 10 10 9 9 10 10 11 12 11 12 13 12 14 15 16 16 16 17 16 16 16 17 19 20 19 20 20
3 3 2 2 3 2 2 2 2 2 4 5 6 6 6 6 10 10 10 10 10 10 10 10 11 12 13 13 13 15 15 15 15 15 15 15 15 16 16 17 18 18 19 18 19
3 3 2 2 2 2 2 2 2 2 3 4 6 6 5 7 9 9 10 10 10 10 10 11 12 12 13 14 14 14 13 12 13 14 14 15 13 13 16 16 16 17 18 18 18
2 2 1 1 2 2 2 1 1 2 4 4 5 6 5 9 9 8 9 10 10 10 10 10 11 10 12 13 13 13 12 10 13 14 14 14 12 14 16 16 15 16 17 17 18
2 1 1 1 1 1 1 1 2 3 4 3 4 5 5 8 8 8 9 10 10 10 10 10 10 9 11 11 11 11 9 10 11 14 14 12 12 13 15 15 15 15 16 16 17
2 1 1 1 1 1 2 2 3 3 4 3 3 4 5 7 9 8 9 9 10 10 9 9 9 9 8 9 9 10 9 10 11 14 13 12 11 12 16 15 15 16 16 16 17
1 1 1 1 1 1 1 2 3 3 2 5 5 6 8 8 8 8 9 9 10 9 9 9 9 9 10 10 11 11 11 11 11 13 13 11 11 11 13 15 14 15 16 16 17
1 1 1 1 1 1 1 1 1 2 2 3 2 8 8 8 8 8 9 10 10 8 9 8 8 10 11 11 11 11 10 9 11 12 11 10 10 10 12 13 14 14 14 15 16
1 1 1 1 2 2 1 1 1 2 2 2 4 4 7 9 8 8 9 10 9 8 8 8 10 11 11 11 11 10 10 10 10 10 10 9 9 10 12 12 13 14 15 15 15
1 1 1 1 2 1 1 1 2 2 -1 5 4 5 5 8 8 9 9 10 10 10 9 9 11 11 10 10 10 9 10 11 11 9 8 9 7 8 11 13 13 13 14 15 15
1 1 1 1 0 1 1 1 1 1 -0 6 5 6 7 8 8 8 9 11 10 9 9 7 9 10 10 11 11 9 10 10 10 8 6 7 6 8 10 13 15 14 15 16 17
1 1 0 1 1 2 1 1 1 0 3 4 5 5 7 8 9 8 9 10 11 10 10 9 10 10 10 10 11 9 9 9 8 6 3 6 7 8 12 14 15 13 16 17 17
1 1 1 1 2 2 1 1 -1 1 4 5 4 7 8 8 8 8 8 8 7 7 6 8 9 10 11 9 9 8 5 3 5 6 5 9 7 8 11 13 14 14 16 17 16
1 1 2 2 1 1 1 1 -0 5 4 3 6 7 7 8 8 8 8 6 8 8 6 6 5 8 9 8 7 8 5 6 6 6 8 9 9 11 12 13 15 16 16 15 15
1 1 1 1 1 2 1 1 2 4 4 4 6 6 6 7 7 7 7 6 7 8 7 6 8 9 9 10 8 7 5 7 7 6 5 7 9 12 12 11 12 12 13 12 13
1 1 1 2 2 1 1 3 4 3 2 4 6 6 6 6 6 7 7 7 8 9 9 9 6 9 9 10 9 8 8 5 2 3 5 6 9 11 12 12 10 9 10 12 12
1 1 1 2 2 1 1 3 5 3 1 4 7 7 6 7 6 7 7 8 9 9 9 10 7 6 8 8 7 7 6 7 6 4 4 3 7 10 12 11 11 10 11 11 11
1 1 2 1 1 1 2 5 5 4 2 5 6 8 7 8 7 8 7 8 9 9 8 9 8 6 6 8 8 7 6 6 2 3 2 2 5 9 10 11 11 11 11 11 11
0 1 1 2 1 2 4 4 4 3 4 7 8 10 8 9 7 9 8 10 10 9 8 8 6 7 8 8 8 7 7 8 7 6 1 2 6 10 9 10 11 11 11 10 10
0 1 2 2 2 3 4 4 4 3 6 8 9 9 8 8 7 7 8 9 10 10 10 10 9 5 4 6 8 6 8 8 8 4 4 4 7 10 10 9 11 11 10 9 7
0 1 1 1 2 3 2 4 4 5 7 8 9 9 8 7 8 8 8 7 8 9 9 7 6 7 7 7 8 8 8 7 6 7 7 8 7 9 9 11 10 10 8 7 7
1 1 1 1 4 4 4 4 3 6 7 9 8 10 9 8 9 8 8 7 7 7 8 7 6 6 7 7 7 7 7 7 8 8 7 7 7 10 11 11 10 8 8 7 6
0 0 0 2 5 5 6 4 5 6 8 8 9 8 7 7 8 9 9 9 7 6 5 5 5 6 2 8 7 5 7 8 8 8 9 7 9 11 11 10 9 7 7 6 5

GFSSW_850_temp_060.txt.gz
Temp
3 3 3 3 3 3 3 3 3 4 6 7 8 8 8 8 8 6 7 11 11 10 11 11 11 11 11 12 13 14 10 10 13 13 15 17 18 20 21 21 22 22 22 23 20
3 3 3 3 3 3 3 3 3 3 5 6 8 8 7 7 7 6 11 11 11 10 10 10 11 11 11 12 13 11 9 11 14 14 16 17 18 18 19 20 20 21 22 20 20
3 3 3 3 3 3 3 3 3 2 3 5 6 7 7 6 6 9 12 11 11 10 10 11 11 11 11 12 12 12 10 13 15 16 16 16 16 17 17 18 18 19 20 20 19
4 4 4 3 3 2 2 2 3 3 3 3 5 6 7 6 6 10 10 10 11 10 10 10 10 10 10 10 12 11 13 14 15 16 15 16 17 16 17 18 18 18 19 19 19
3 3 3 3 3 3 4 2 2 2 2 3 4 5 7 5 7 10 10 10 10 9 10 10 10 10 10 10 12 11 12 14 15 15 15 15 15 15 16 18 18 17 17 19 19
2 3 2 2 2 2 2 2 2 2 2 2 3 4 6 5 9 11 10 10 10 9 10 10 10 11 12 11 11 13 13 14 14 14 14 14 14 15 16 17 18 18 18 17 18
3 2 2 2 1 1 1 1 1 2 2 2 3 4 5 6 9 9 10 10 10 9 9 10 11 11 12 12 13 14 12 12 13 13 13 15 14 12 16 17 17 18 18 18 18
2 2 2 2 1 1 1 1 1 1 1 2 2 3 5 6 8 9 9 10 9 9 10 11 11 11 11 13 13 12 11 11 12 14 14 14 13 14 15 16 16 17 18 18 18
2 2 2 2 1 1 1 1 2 2 2 2 2 2 5 6 7 9 9 9 9 9 9 10 10 9 11 10 10 10 9 10 11 13 13 11 12 13 16 15 15 16 16 16 18
1 2 2 2 1 2 1 1 3 3 2 2 2 3 5 7 8 9 9 9 9 9 8 9 9 9 9 10 10 9 10 10 10 13 12 11 10 12 14 14 13 15 15 16 16
1 1 1 1 1 1 1 2 2 2 2 2 4 4 6 7 7 8 9 8 9 9 9 9 9 9 9 11 11 11 10 10 11 12 11 10 10 11 12 12 12 13 15 16 16
0 1 1 1 1 2 1 1 1 0 1 3 3 3 5 7 7 8 9 8 9 8 8 8 9 10 10 9 10 10 10 9 10 11 11 9 9 10 11 12 13 14 14 14 15
0 1 1 1 1 2 1 1 1 1 1 2 3 2 4 7 8 7 8 9 9 8 9 8 8 10 10 10 10 9 9 9 10 9 10 8 10 10 11 12 13 13 14 14 15
1 1 1 1 1 1 2 1 1 1 0 2 3 2 4 6 8 8 8 9 9 8 8 9 8 10 10 10 9 9 10 10 10 9 7 8 7 8 10 10 11 13 12 13 14
1 1 0 0 0 1 1 1 1 1 -1 5 3 3 5 7 8 8 9 10 9 9 8 8 9 8 9 10 10 8 9 9 9 7 5 7 6 8 10 13 12 11 15 16 17
0 0 1 1 0 2 1 1 1 0 -1 4 5 4 5 7 8 8 8 9 9 9 9 9 10 10 10 9 10 9 8 7 6 5 3 6 7 9 11 13 13 13 15 15 15
0 1 1 1 0 1 1 1 -2 -0 4 4 4 5 6 7 7 8 8 8 7 7 7 8 8 9 9 8 9 7 5 3 3 5 5 7 7 8 10 11 13 13 11 13 13
1 1 1 1 1 1 1 1 -1 4 4 2 3 5 6 8 7 7 7 7 7 7 6 5 7 8 9 8 7 7 5 2 4 5 5 8 7 9 11 11 11 11 12 13 13
1 2 1 1 1 1 1 -1 2 3 3 3 4 6 6 6 7 6 7 6 8 7 6 6 7 8 9 9 8 7 4 7 5 4 4 6 8 10 9 9 9 10 12 12 12
1 1 2 2 1 1 0 2 2 3 2 1 5 6 6 6 6 6 7 7 8 8 8 7 6 9 9 10 9 7 6 3 0 2 4 6 7 9 11 10 9 8 10 11 11
1 1 1 1 1 1 0 2 5 2 1 3 6 5 6 6 7 7 7 8 8 8 9 8 6 6 8 8 7 7 5 6 4 3 3 3 6 8 10 9 10 8 11 11 10
1 1 2 2 1 0 1 4 5 3 1 2 5 7 6 7 7 7 7 7 8 8 8 9 6 6 7 8 8 7 6 6 2 3 1 2 6 10 9 10 10 9 10 10 10
0 1 2 2 -0 0 3 3 3 3 3 6 7 8 8 8 7 8 7 9 9 8 7 8 6 4 7 8 8 7 6 7 6 4 2 3 6 8 7 9 10 10 11 10 9
1 0 2 2 1 2 3 4 4 3 4 6 8 8 8 7 7 7 7 8 9 9 10 9 7 6 5 6 6 5 6 7 6 4 3 4 5 8 9 8 8 10 10 9 8
0 1 1 1 1 2 2 3 4 5 7 8 8 8 7 7 7 6 7 7 8 9 8 7 6 6 6 7 7 7 6 6 5 6 5 7 6 8 7 8 10 10 9 8 7
1 1 0 1 2 3 4 3 4 6 7 6 6 7 7 7 8 7 7 7 7 7 7 6 5 6 6 7 6 6 6 6 6 6 6 7 7 9 10 10 10 9 8 7 6
0 0 0 2 3 4 4 4 5 6 7 7 8 7 6 6 7 8 9 8 7 6 5 7 6 6 2 6 6 5 6 7 7 7 8 7 8 9 10 10 9 7 7 6 5

GFSSW_850_temp_063.txt.gz
Temp
3 4 3 3 3 3 3 3 3 3 3 3 6 7 7 7 7 7 6 10 10 10 9 10 10 11 10 11 12 13 9 9 12 12 14 16 17 19 19 20 20 20 21 22 22
4 4 4 4 3 3 3 3 3 3 3 3 4 6 7 7 7 7 10 10 10 10 9 9 10 11 10 11 12 11 8 10 12 13 15 16 16 17 18 17 19 20 21 20 20
4 4 4 3 3 4 3 3 3 3 3 3 3 4 6 6 6 7 11 11 11 10 9 10 10 10 10 11 11 11 10 12 14 15 15 15 16 17 16 16 17 17 18 18 18
3 3 3 3 3 3 3 3 2 2 3 3 3 3 4 6 8 10 9 9 11 10 9 9 10 10 9 9 11 11 12 13 14 15 15 15 15 15 16 17 18 18 17 17 18
3 3 3 3 3 2 2 2 2 2 2 2 3 2 3 6 6 10 9 9 10 8 9 8 9 10 9 10 11 10 12 13 14 14 14 14 14 14 15 17 18 18 18 18 18
3 3 3 3 3 3 2 2 2 2 2 2 2 2 2 5 6 9 10 9 9 8 9 9 9 10 10 10 10 12 12 13 13 14 14 14 13 14 15 17 17 17 18 18 18
2 3 2 2 2 2 2 1 1 1 2 2 2 2 2 4 6 8 9 10 9 9 9 10 10 10 11 11 12 12 11 11 12 13 13 14 12 11 15 16 16 16 16 17 18
2 2 2 2 2 2 1 1 1 2 1 1 2 2 2 5 7 7 8 10 9 9 10 10 10 11 11 12 11 10 10 10 12 12 13 14 12 13 16 16 16 17 17 16 18
2 1 1 1 2 1 1 2 1 2 1 2 2 2 3 6 6 7 8 8 9 9 9 10 10 10 10 10 10 9 8 9 12 12 13 11 11 13 15 15 15 15 16 17 18
1 1 1 1 1 2 1 2 3 3 2 2 2 2 3 5 6 7 8 8 9 9 8 8 9 9 9 10 10 10 10 10 10 12 11 10 9 11 14 13 13 14 15 16 17
1 1 1 1 1 2 1 2 1 2 1 2 2 3 5 6 6 7 8 8 9 8 9 8 9 9 9 10 11 9 9 10 10 11 11 9 9 10 11 12 11 14 14 15 15
1 1 1 1 1 1 1 1 0 1 1 2 3 2 3 3 6 7 7 8 8 8 8 8 9 10 10 11 10 9 9 9 10 10 11 9 8 10 10 10 12 13 14 15 16
1 1 1 1 1 1 1 1 1 1 0 2 2 3 2 2 5 6 6 8 8 8 8 9 9 10 10 9 9 9 9 9 10 9 9 7 9 9 11 12 13 14 14 14 14
1 1 1 1 1 1 2 1 1 1 1 2 3 2 3 3 7 7 7 9 8 8 8 8 9 10 9 9 8 7 9 10 10 9 8 7 8 8 10 10 10 12 13 14 14
0 0 1 1 1 1 2 2 1 1 -3 4 3 2 1 5 6 5 8 9 8 8 8 7 8 8 9 9 10 9 9 8 8 6 6 7 6 9 10 12 11 9 11 12 13
-0 0 1 1 0 1 1 1 1 -2 -1 4 4 3 2 6 8 6 8 8 9 9 9 8 9 8 8 9 9 8 7 6 5 4 3 7 7 9 11 12 12 8 10 12 12
0 1 1 1 1 0 1 1 -3 0 3 4 4 3 2 6 7 8 7 7 7 7 7 7 7 9 9 8 9 7 5 2 4 2 5 6 6 8 9 9 11 8 10 11 12
1 1 1 1 1 1 1 -0 1 3 3 2 3 4 5 8 7 8 7 6 7 6 5 5 6 8 9 8 7 7 6 3 5 4 5 7 6 9 9 8 10 10 10 11 12
2 1 2 1 1 1 1 -3 2 2 3 3 3 4 6 6 6 6 6 6 7 8 7 5 6 8 9 8 8 6 4 6 3 2 3 5 7 10 8 8 8 9 11 11 11
1 2 1 1 1 1 -1 2 2 2 1 1 5 6 6 6 6 6 7 7 7 8 8 7 6 8 8 9 7 7 6 4 1 2 4 5 6 7 9 9 8 7 9 10 10
1 2 1 1 1 2 -0 2 3 1 1 2 6 5 5 6 5 6 7 7 8 8 7 6 6 6 8 8 6 6 4 5 4 4 4 3 6 7 8 8 9 7 9 10 10
1 -1 2 2 -0 1 -1 3 3 3 3 3 4 6 6 6 7 7 7 7 8 8 8 7 5 6 6 7 7 6 6 5 2 3 1 1 5 9 7 9 9 8 10 10 10
0 1 3 2 -1 0 3 3 3 3 3 5 7 7 7 7 7 7 7 7 8 8 7 7 5 3 6 7 7 7 6 6 4 3 -1 2 6 7 6 6 8 8 10 10 9
1 0 2 2 1 2 3 3 4 4 4 4 7 7 7 6 6 6 7 7 8 9 9 8 6 6 5 6 5 5 6 6 5 3 3 3 5 7 7 8 8 9 10 10 9
0 -0 1 1 1 2 2 2 3 6 5 7 7 7 7 6 7 6 6 7 7 8 7 7 6 6 6 7 7 6 6 5 4 6 4 6 6 7 7 6 8 9 9 9 8
1 0 1 1 2 3 4 4 6 7 6 6 6 6 7 7 8 6 6 7 7 7 6 6 5 6 6 6 6 6 6 6 5 6 5 6 6 8 9 9 9 10 9 8 6
0 0 0 2 3 4 4 5 5 6 6 7 7 6 6 5 7 8 8 7 7 6 5 6 5 5 2 5 5 5 5 6 6 5 6 6 7 9 8 8 9 9 7 7 5

GFSSW_850_temp_066.txt.gz
Temp
4 4 4 4 4 4 4 4 3 3 3 3 3 3 6 6 6 7 7 9 10 10 9 9 10 10 10 10 11 12 9 8 11 12 14 15 15 18 18 19 19 20 20 21 21
4 5 4 3 3 3 3 4 3 3 3 3 3 3 3 4 5 6 7 9 9 10 8 8 9 10 9 10 11 10 8 10 12 12 14 15 16 17 17 16 18 19 19 20 20
4 4 4 3 4 3 3 4 4 3 3 3 3 3 3 3 5 7 10 10 9 10 9 9 9 10 9 10 10 10 9 12 13 14 15 15 15 16 16 16 17 17 17 18 18
3 3 4 4 3 3 3 3 2 2 2 2 3 3 3 3 6 10 10 8 9 7 8 8 9 9 10 10 10 9 10 12 14 14 14 14 15 15 16 17 18 17 17 15 16
3 3 3 3 3 3 3 3 2 2 2 2 2 3 3 3 4 8 8 8 8 7 8 8 8 10 10 11 10 9 11 12 13 14 13 14 13 13 14 16 17 17 17 16 15
3 2 3 3 2 2 2 2 2 2 2 2 2 2 2 2 5 8 7 7 8 7 7 8 9 10 10 9 10 11 11 12 13 13 13 13 13 13 15 16 16 17 17 17 17
3 2 2 2 2 2 2 1 2 1 2 2 2 2 2 2 5 6 7 7 8 8 7 8 9 10 10 10 11 11 10 10 12 12 12 13 11 10 15 15 16 16 17 17 17
2 2 1 1 2 2 1 1 1 1 2 2 2 2 2 3 5 5 7 8 8 8 8 9 9 10 10 11 10 10 10 9 11 11 12 13 11 12 14 15 15 16 16 16 18
2 2 2 1 1 1 2 2 2 3 3 2 2 2 1 4 4 6 6 6 8 8 8 9 9 10 10 10 9 8 7 8 11 11 12 11 11 13 14 13 14 15 16 16 17
2 2 2 2 2 2 1 2 3 3 2 2 1 1 2 3 4 6 7 7 7 8 7 8 9 9 8 9 9 9 9 8 9 11 11 10 8 10 13 12 13 14 14 15 15
1 1 1 1 2 2 1 2 2 2 1 2 2 2 3 3 4 6 7 6 8 8 8 8 8 8 9 10 10 9 9 9 9 11 11 9 8 9 11 11 10 12 14 14 15
1 1 1 1 1 1 1 1 1 1 1 2 2 2 2 1 3 6 6 6 8 8 8 7 8 10 11 11 11 10 8 8 9 10 10 8 8 9 10 10 12 13 14 15 16
1 1 1 0 1 2 1 1 1 0 0 1 2 2 2 2 2 5 5 6 8 8 7 7 7 9 10 10 9 9 8 8 9 9 8 7 8 9 10 10 12 13 13 13 13
0 0 0 1 1 1 1 1 1 1 0 1 2 2 1 1 2 5 6 8 9 8 8 7 8 8 10 8 8 9 9 9 9 8 8 7 8 8 10 9 9 8 10 11 12
-0 -0 1 0 1 1 0 0 1 1 -1 2 2 1 0 1 5 5 6 7 8 8 8 7 8 9 8 8 7 7 8 8 7 6 6 7 6 9 9 11 8 6 9 10 11
1 1 1 2 1 0 -0 0 1 -2 0 3 3 2 2 1 5 5 5 7 9 8 7 7 7 8 8 8 8 8 7 5 4 4 4 7 7 9 10 10 9 8 9 10 11
1 1 2 1 0 0 0 0 -2 1 2 3 3 3 2 6 5 6 6 6 7 7 7 6 6 7 8 6 8 7 6 3 4 3 6 6 6 8 8 9 9 8 9 10 11
2 2 1 1 1 1 1 -2 -2 3 2 3 3 3 4 5 5 6 7 6 6 6 5 5 6 7 8 7 7 7 6 4 6 4 5 6 6 8 7 7 9 9 9 10 11
2 3 1 1 1 1 1 -1 1 2 2 2 3 4 5 5 5 6 5 5 6 7 6 5 6 8 8 8 8 6 4 5 2 1 3 5 6 8 8 8 8 8 10 10 10
2 3 2 1 1 1 0 3 2 2 1 1 4 5 6 6 6 5 6 5 7 7 7 6 6 8 7 9 7 7 6 4 1 2 5 4 5 7 7 7 8 7 8 10 10
2 2 2 2 1 1 -1 1 2 2 1 3 5 5 6 5 5 6 6 6 8 7 6 6 6 6 8 8 6 6 4 4 4 3 3 3 6 6 7 7 7 8 8 9 10
0 -3 3 2 -1 1 1 3 2 3 3 4 4 6 6 6 6 6 6 7 8 8 6 6 5 6 6 7 7 6 5 5 3 3 1 -0 4 7 6 7 8 8 9 9 9
-0 0 3 3 -1 1 2 3 3 4 4 5 6 7 7 6 7 6 6 7 8 8 7 7 4 6 6 7 6 6 6 5 4 2 -0 3 6 7 5 5 7 8 10 10 9
1 -0 2 2 1 2 3 3 4 5 5 5 6 6 6 5 5 6 6 6 8 8 8 8 5 5 4 5 5 5 5 5 4 2 3 2 5 7 7 6 7 9 9 9 9
0 1 1 1 2 2 2 2 4 6 6 6 7 6 7 6 6 6 6 6 7 8 6 6 5 6 6 6 6 6 5 5 4 4 4 6 4 6 6 6 7 9 9 9 7
0 0 1 1 2 4 5 5 6 6 5 5 5 6 6 7 7 6 6 6 7 6 6 5 4 6 6 6 6 6 6 5 5 5 4 5 5 8 8 8 7 9 9 8 6
-0 0 0 2 3 3 4 5 6 7 7 6 6 6 5 5 5 7 7 6 6 5 5 5 4 4 3 5 5 5 5 5 5 4 6 5 7 9 7 7 8 9 8 6 6